logo
Search for airport 
image banner adimage banner adimage banner ad
image banner ad

YTUN - Tunbridge

Located in Tunbridge, Australia

ICAO - YTUN, IATA -

Data provided by Airmate  

General information

Coordinates: S42°6'48" E147°21'53"
Elevation is 745 feet MSL.
Magnetic variation is 15° East
View others Airports in Tasmania

Operational data

Special qualification required
Current time UTC:
Current local time:
Weather at : YMLT - Launceston ( 64 km )
METAR: YMLT 220900Z AUTO 33005KT 9999 // OVC042 11/10 Q1023 RF00.0/000.0
TAF: TAF AMD YMLT 220526Z 2206/2306 34010KT 9999 BKN030 FM221500 34005KT 9999 FEW030 FM230200 34008KT 9999 SCT030 FM230500 16010KT 9999 -SHRA BKN030 PROB30 2216/2222 0500 FG
View NOTAMs / SUP AIP / TFR affecting this airport [VIEW]
Communications frequencies: [VIEW]

Runways:

RWY identifierQFULength (ft)Width (ft)SurfaceLDA (ft)
1642650X
3442650X
0714760X
2514760X
31325°3493133DIRT
13145°3493133DIRT

Airport contact information

Address: Tunbridge Australia

Satellite view of YTUN